GFSSE_con_sbcape_057.txt.gz
CAPE
481 504 1423 1732 1947 1877 1724 2126 2372 2301 2120 2297 2275 1937 1782 1788 1841 1999 2062 2204 1771 1466 1833 1015 830 1252 1356 1770 1771 1473 2138 2197 2272 2519 2563 1996 2130 2191 2228 1974 2105 1632 1917
396 741 1780 2298 2025 2066 2057 2209 2244 2354 2262 2202 2142 2084 2080 2170 2281 2216 2150 1810 1416 1921 1438 1095 708 1339 1176 1578 1616 1702 2070 2193 2340 2450 2456 2114 2124 1757 1703 1608 2073 1833 1853
321 991 1187 2403 2021 1824 2007 2154 2373 2245 2180 2155 2163 2188 1955 1791 2095 2113 1844 1617 1611 1865 1319 1264 1280 1045 1307 1556 1346 1542 1873 2149 1927 2238 2254 1867 1983 1944 2020 1865 1834 1873 1496
391 1024 935 2333 2197 1912 1938 2125 2320 2192 2104 2202 2097 2180 2080 1995 1847 1974 1907 1764 1653 1837 1734 1449 1414 1340 1356 1479 1670 1229 1669 2025 2017 2151 2023 1841 1671 1794 2019 1982 1934 1688 1764
717 1117 1112 2238 2216 1883 2043 1911 2152 2113 2166 2113 2153 2104 1908 1923 1841 2041 1887 1662 1516 1510 1461 1528 1455 1441 1289 1215 1240 1547 1687 1586 1533 1628 2040 2028 1856 2073 1938 1839 1844 1615 1641
722 898 1511 2134 1567 2145 2164 1519 2037 2025 2219 2223 1815 1848 1877 1893 2070 2020 1725 1585 1408 1511 1478 1524 1530 1372 1311 1428 1173 1498 1254 1376 1029 1701 1718 1854 1724 1800 1620 1650 1637 1887 1880
519 1014 1168 2431 1794 1947 2058 1565 1942 2027 2033 2134 2122 2288 2138 2081 1907 1842 1711 1664 1280 1535 1464 1741 1266 1242 1413 1369 1477 1479 1622 1124 1224 1587 1675 1916 1786 2147 2005 1860 1761 1908 1780
806 735 1024 2005 1779 2002 2015 1613 2037 2108 2100 2026 1961 1995 2265 2234 1994 1806 1882 1831 1759 1656 1407 1398 1163 1310 1336 1464 1721 1936 1337 724 879 1396 1814 1838 1819 2177 1890 1808 1870 1795 1777
704 810 961 1747 1667 1612 2003 1614 1905 2041 2011 1850 1819 2027 2214 2226 2134 2014 1901 1778 1462 1253 1232 1163 1339 1485 1514 1622 1741 1649 1614 999 1185 1609 1499 1634 1987 1773 1809 1774 1897 1911 1531
516 803 991 1539 994 997 1270 1556 1731 1826 1890 1986 1939 2120 2148 2086 1993 1744 1740 1827 1386 1155 1055 1121 1291 1573 1715 1613 1620 1826 1655 1522 1365 1460 1196 1392 1860 1552 1807 1794 1836 1788 1868
564 734 890 1201 1339 1465 1368 1261 1612 1714 1798 1809 1767 1970 1816 2021 1686 1285 1567 1654 1498 1529 1406 1240 1441 1516 1654 1704 1806 1559 1291 1173 1137 1128 1310 1498 1696 1551 1685 1826 1790 1759 1727
704 661 773 1081 1080 1247 979 1423 1635 1561 1437 1532 1801 1789 1609 1689 1692 1282 1449 1671 1642 1717 1582 1600 1407 1630 1189 1281 1410 1465 1162 1199 1112 1040 1089 1402 1833 1292 1731 1884 1829 1622 1601
652 516 856 1122 1205 1306 1184 1580 1537 1612 1597 1749 1816 1274 1469 1618 1772 1305 1538 855 790 1026 892 848 1010 933 1102 1139 1251 1274 1372 1191 1037 823 1236 1503 1567 1595 1741 1694 1714 1630 1495
516 620 774 1083 1171 1322 1367 1378 1435 1427 1465 1400 1259 676 1496 1670 1696 1338 1134 731 722 977 1443 1629 1650 1657 1494 1356 1401 1317 1266 1132 770 805 1218 1468 1593 1155 1022 1788 1628 1457 1403
257 721 792 1152 1142 1375 1528 1330 1312 1435 1297 1112 1123 194 1161 1467 1647 1191 1127 1060 1394 1347 1473 1749 1468 1086 844 829 1410 1460 1275 1154 807 679 862 1239 1532 898 1215 1375 1513 1629 1521
329 658 862 1094 1021 1225 1151 1490 1269 1265 1115 1118 1166 311 524 1132 1422 918 1063 1376 1519 1480 1480 1520 1543 1054 686 731 1610 1534 1405 1085 820 714 1173 1021 1233 926 676 620 902 1143 1113
674 702 850 950 874 989 1014 1100 933 818 790 1048 1193 1165 450 527 1017 1168 1514 1532 1609 1792 1509 1950 1648 1096 265 578 1466 1560 1362 1239 683 657 1015 1233 923 1124 1237 685 510 455 452
542 754 865 544 547 624 585 639 541 428 649 996 1137 1055 828 1128 1438 1760 1649 1603 1664 1574 1797 2480 1666 848 511 388 1142 1162 1295 1023 632 577 749 1055 1105 903 965 1177 1315 1361 1266
451 715 790 724 495 453 554 464 386 384 603 876 1057 1151 1337 1296 1023 1634 1586 1692 1875 1766 1807 1716 1380 929 567 242 728 969 835 466 266 185 448 729 952 977 1017 1275 1274 1218 1059
446 614 672 613 610 559 528 667 398 253 484 808 951 1031 1431 1447 1457 1564 1708 1698 1510 1936 2186 1813 1812 1233 896 182 130 424 490 491 465 197 286 295 417 687 595 1001 1108 1018 1372
643 567 585 622 758 515 401 384 485 492 633 795 1039 1306 1562 1547 1667 1863 1590 1649 1351 1620 2214 1589 1031 745 777 91 253 150 187 289 542 309 302 308 378 377 357 588 738 689 561
565 617 631 650 702 694 428 606 624 866 885 1117 1282 1473 1691 1663 1934 1839 1582 1501 1376 1558 1846 1521 1009 94 233 133 119 149 102 115 117 206 428 502 601 588 514 459 586 744 663
477 619 653 845 849 815 851 662 697 839 767 876 1196 1550 1724 1859 1997 2037 1598 1573 1481 2581 2361 1884 996 514 196 326 105 155 100 47 109 95 361 545 781 791 800 862 694 639 797
567 436 710 806 915 723 974 915 1356 765 825 859 1117 1282 1803 1926 2004 2117 2033 1697 1843 2113 2556 1859 1483 924 473 302 87 46 122 293 18 48 229 347 782 860 944 826 521 657 827
287 380 258 793 1110 1127 1166 1224 993 1196 886 942 782 1316 1816 2037 1948 2043 2218 1960 1955 2049 2321 2040 1994 1663 523 219 125 207 457 292 73 76 25 226 461 677 818 905 553 545 805
145 280 298 770 903 1123 999 1167 1561 1658 1233 846 832 846 938 1328 1722 1978 2051 2259 2315 2105 2119 2099 2158 1857 1157 317 309 454 174 103 182 227 160 314 202 383 630 801 779 663 682

GFSSE_con_sbcape_060.txt.gz
CAPE
990 1048 1589 1575 1376 1731 1769 1802 2091 2113 2314 2370 2392 2156 1875 1705 1849 1938 2324 1865 1558 1868 1170 942 1421 1533 2002 1839 1767 2038 2233 2321 2493 2469 2067 1998 2089 2135 1973 1497 2223 1140 1774
799 758 1512 1792 1746 1899 2225 2099 2055 1973 2031 2159 2016 1903 1908 2176 2442 2399 2081 1497 2066 1474 1196 807 1449 1269 1720 1727 1665 2073 2008 2060 2414 2291 2305 2060 1956 1777 1752 1869 2601 1835 1770
697 757 1355 2340 2113 2113 2152 2202 2295 2281 2239 2157 2119 2097 2069 2232 2331 2140 1874 1533 1979 1407 1393 1342 1175 1553 1542 1269 1673 1890 2278 2125 2030 2056 2017 1834 1979 1941 1885 2098 1783 1681 1733
738 632 1426 2256 2388 2115 2349 2333 2330 2287 2303 2263 2263 2132 1936 2121 2080 2142 1781 1716 1881 1714 1552 1513 1375 1380 1655 1559 1631 1944 2107 2329 2293 2050 1950 1408 1643 1918 1965 1940 1749 1816 1721
398 389 1794 2184 2420 2246 2162 2162 2096 2126 2210 2313 2196 2088 1927 1844 2017 1936 1772 1531 1650 1591 1691 1650 1531 1400 1472 1602 1524 1983 1842 1903 1909 1933 2027 2240 1716 2029 1986 1916 1891 1768 1730
397 394 1861 2005 1716 2240 1941 2119 2172 2158 2260 2079 2157 2021 2056 1751 1805 1639 1550 1563 1566 1534 1614 1693 1620 1393 1521 1284 1474 1363 1601 1290 1805 1518 1701 2029 1948 1993 1833 1776 1816 1968 1359
274 523 1732 2357 1966 2030 1623 1985 2100 2296 2266 1996 2095 2093 2048 1919 1709 1598 1524 1362 1568 1543 1722 1448 1351 1453 1504 1515 1534 1717 1265 1071 1184 1250 1921 1824 1822 2270 2078 1714 1987 1957 1478
185 338 1525 1843 2085 2088 1615 2127 2049 2111 2024 1994 2046 2073 2119 2121 2096 2007 1972 1849 1651 1543 1632 1297 1309 1475 1523 1814 1819 1658 1099 718 905 1662 1849 1767 2122 2140 2006 1933 1913 1890 940
142 367 1303 918 1908 1839 1669 1962 2009 2095 2026 1871 1813 1841 2245 2155 2027 1835 1703 1483 1404 1331 1130 1352 1483 1620 1544 1802 1883 1688 977 883 1345 1525 1489 1338 2096 2002 1929 1946 1878 1459 1596
144 345 1103 748 936 1755 1201 1881 1949 2037 2056 1944 1701 2031 2121 1969 1603 1553 1888 1421 1215 1157 1143 1304 1567 1518 1484 1601 1932 1694 1530 1341 781 764 1035 1131 1874 1901 1873 1836 1862 1684 1704
131 302 891 482 750 1058 1261 1780 1866 1924 1980 2031 2026 2233 2041 1135 1117 1282 1644 1301 1424 1277 1164 1269 1504 1574 1753 1739 1857 1535 1817 784 632 716 1015 1514 2189 1734 1787 1852 1786 1689 1592
103 183 510 462 715 933 674 1335 1376 1268 1249 1372 1361 1528 1258 1334 1412 1224 1514 1712 1526 1523 1536 1454 1516 1503 1752 1094 1200 1572 738 695 623 623 1042 1469 2049 1796 1835 1769 1682 1607 1599
52 122 392 561 804 836 888 1138 1211 1204 1202 1496 1654 1365 1339 1292 1118 1193 1070 1209 1093 1375 970 1346 1483 1173 1221 986 1085 962 1068 771 452 665 1142 1679 1567 1623 1732 1713 1658 1501 1436
44 113 344 535 827 984 988 1014 992 969 930 939 1232 1748 1693 1633 1429 1144 889 966 1286 1226 1616 1223 1159 1615 1468 1447 1125 924 879 643 513 455 928 1339 1424 1284 1698 1675 1619 1499 1643
72 80 254 540 915 1205 1152 996 884 934 1021 1025 1483 1221 1322 1257 1344 1087 1201 1190 1199 1323 1149 1149 1038 1047 1181 1406 1360 1226 996 793 693 461 757 1243 1029 1098 1604 1509 1607 1616 1501
88 71 206 540 876 1159 1204 1353 1185 1184 1243 1214 1134 857 1802 2120 1594 1166 1405 1368 1175 1172 986 980 952 553 641 946 1448 1306 1085 813 746 866 517 1099 1213 788 701 933 1190 1381 1123
90 162 240 514 662 1089 1235 1487 1220 1103 864 1040 1134 1272 1022 1617 1876 1501 1414 1378 1249 1569 1634 1441 1200 951 123 378 1112 1282 1199 874 700 873 935 879 998 1195 928 606 469 438 450
96 279 359 218 374 814 924 1191 803 787 892 961 1141 1233 1056 1506 1877 2289 1648 1329 1627 1439 923 742 1071 274 121 243 580 540 844 636 711 790 757 851 735 1214 1166 1314 1214 1192 1219
299 469 482 312 301 425 688 719 692 920 1076 1155 1280 1284 1693 1659 1785 1815 1349 1709 2035 1467 780 735 608 403 151 213 308 515 646 449 448 447 625 682 893 771 666 1203 1145 1078 846
397 571 571 373 379 478 458 581 473 721 1027 1246 1351 1381 1863 1715 1808 2061 1731 2280 1428 876 949 863 1020 584 715 527 114 313 287 445 326 297 450 202 380 726 815 1019 1202 1294 1217
282 550 668 521 576 585 401 296 451 651 942 1164 1184 1566 2007 1869 2080 2285 1529 2073 2146 962 689 1444 1631 1380 280 275 716 256 194 481 717 325 201 162 349 165 164 458 725 365 1033
295 443 749 727 786 820 261 469 355 743 890 1056 1371 1855 2107 2079 2230 2093 1927 1825 1910 1001 1284 1557 1264 531 637 310 745 88 69 98 191 70 146 311 431 433 483 481 348 638 552
331 581 739 958 952 913 630 321 937 1131 1295 1577 1626 1626 1978 2186 2271 2224 2322 1976 2288 1352 1222 1635 1153 719 394 629 807 1143 56 173 16 17 473 361 684 631 558 666 579 455 517
356 607 892 1085 1151 990 887 953 1798 1197 874 682 1126 992 1484 2190 2199 2347 2399 2261 1961 1246 1547 1115 1028 716 790 415 322 50 719 782 38 42 135 425 648 702 871 754 548 732 645
398 573 938 1306 1948 1855 1647 1490 1074 1581 453 580 847 1589 2057 2473 2314 2145 2570 2568 2537 1499 1690 1635 1795 1803 460 201 112 36 248 59 190 266 244 409 432 454 546 802 533 492 751
492 459 823 1878 2078 2076 1602 977 1795 2073 1477 839 1457 1318 1267 1334 1904 2376 2477 2748 2727 2144 1714 1615 1849 2158 1571 1114 368 304 37 76 189 222 240 449 375 446 460 593 673 686 654

GFSSE_con_sbcape_063.txt.gz
CAPE
817 985 1235 1245 1402 1522 1968 2004 1967 2274 2413 2312 2227 2074 1838 1576 1748 2108 1926 1660 1865 1271 1021 1554 1636 2108 1911 2016 2082 2306 2567 2618 2569 2109 1959 2307 2172 1973 1863 1712 2477 1392 1802
869 1067 1611 1785 1632 1889 1939 1980 2047 2276 2184 2385 2102 1836 1776 2177 2167 1843 1622 2119 1564 1179 920 1551 1352 1736 1801 1722 1992 1787 2176 2115 2584 2423 2440 2216 2013 2054 1969 2136 2668 1726 1687
828 873 1270 1962 2000 2054 2053 2006 1960 1932 2072 2154 2145 2163 2382 2156 2249 1963 1535 1894 1466 1614 1349 1334 1663 1491 1400 1923 2029 2029 2285 2142 2113 1876 2197 1880 1923 2207 2116 1794 2088 1922 1893
708 792 901 2273 2508 2093 2147 2335 2285 2302 2335 2368 2188 2028 2125 2177 2069 1894 1729 1793 1586 1671 1579 1388 1538 1540 1542 1798 2003 2248 2282 2006 1833 1512 1677 1724 1480 2113 2009 2051 1892 1647 1322
448 409 1280 2311 2444 2354 2277 2297 2243 2243 2266 2177 2140 2057 1979 1939 1858 1890 1681 1716 1653 1859 1635 1636 1500 1594 1802 1490 1989 1884 1799 1713 1848 1919 1930 2566 1511 2021 1892 1967 1793 1618 2086
504 470 1744 1992 2113 2139 2204 2147 2159 2169 2124 2200 2122 2023 1852 1809 1799 1708 1726 1650 1576 1711 1721 1706 1589 1502 1430 1551 1433 1550 1434 1457 1922 2049 2056 1860 1878 1989 2027 2071 2067 1090 1937
457 525 1492 2360 2004 2016 2181 2128 2108 2114 1881 2090 2034 2003 1869 1857 1640 1622 1578 1691 1618 1614 1495 1473 1569 1655 1509 1623 1614 1054 1131 1324 2126 2191 1673 1796 1888 2432 1924 2101 1957 1709 1723
188 425 734 1979 1877 1931 1887 1973 2112 2025 2012 1931 1938 1887 1798 1908 2169 2057 1876 1646 1588 1683 1400 1371 1429 1534 1643 1593 1613 981 1067 1164 1584 1843 2017 1704 2110 2291 2105 1936 1746 1176 1086
128 420 789 1534 1837 1762 1952 1904 2050 2050 2030 2132 2131 2072 2236 1941 1908 1828 1638 1589 1393 1135 1401 1388 1195 1539 1730 1846 1541 1097 918 1342 1747 1421 1125 1223 2059 2183 2069 1818 1342 1629 1739
211 319 458 941 1424 947 1858 1802 1975 2054 1944 1762 1662 1985 2064 1705 1239 1074 2002 1625 1272 1150 1383 1201 1311 1462 1693 1740 1469 1180 1491 1692 1013 1397 915 1449 2494 1988 1958 1961 1720 1684 1580
86 313 274 523 1139 904 1677 1919 1959 2063 1999 1872 1881 1936 1849 1115 1399 1358 1668 1470 1255 1130 1166 1186 1236 1523 1711 1727 1528 1482 1796 735 724 929 1136 1986 2294 1905 1911 1845 1754 1680 1721
63 156 198 413 529 673 671 1502 1598 1526 1198 1319 1032 1704 1666 1706 1733 904 1256 1420 1448 1389 1324 1338 1210 703 1670 1178 1367 1642 1333 544 490 928 1191 1671 2057 1935 1885 1834 1662 1580 1180
36 155 81 352 465 407 1048 1211 909 1425 937 1283 1160 1121 889 875 1106 693 1186 1208 1305 1679 1085 1193 1327 1385 1442 1113 1339 1132 356 270 578 649 1283 2303 1645 1882 1765 1686 1515 1428 1538
26 64 66 297 591 569 459 814 1176 786 537 767 1144 1312 1477 1903 1438 1729 1617 1294 1414 1022 1202 1108 1132 1114 1211 837 1031 765 485 254 298 545 1426 1998 1644 1653 1656 1692 1571 1592 1535
17 39 117 344 723 1060 1322 2175 759 490 419 962 1237 1443 1438 1753 1457 1948 976 835 2148 1269 917 1093 639 1102 1262 1131 1141 785 520 370 406 447 587 1083 1163 1495 1548 1524 1546 1441 1325
12 24 182 400 804 954 1610 2047 754 437 2031 1008 1418 1137 1677 1750 2167 1217 2006 1546 1105 522 996 1276 1686 1296 1587 946 1134 1136 763 653 1139 1127 591 1076 933 824 959 1154 1463 1332 1042
6 14 196 420 684 993 2136 1069 800 837 1011 1337 1598 1695 1477 2101 1699 2499 1975 554 1057 1402 2049 1159 808 76 395 918 890 1160 470 668 764 1358 1093 1065 1091 899 682 485 481 452 465
13 6 140 154 582 882 1219 1187 917 672 1049 1244 1275 1519 1395 1652 1705 2328 1319 1461 1168 923 975 608 200 1100 100 435 975 742 566 444 670 619 1065 1227 1580 1239 1260 1170 895 808 873
48 31 123 247 496 837 1204 1169 1244 1122 1485 1462 2165 1774 1733 1965 1881 2232 1464 1954 1949 1569 1082 523 42 841 412 54 134 249 1411 181 848 529 454 887 897 1106 1398 1815 1571 1249 861
52 144 254 268 1141 1510 1291 1188 850 950 1304 1661 1542 2026 1973 2029 1883 2131 1565 1515 1376 1091 371 1654 578 1176 1164 470 582 299 575 172 88 305 194 212 385 492 1088 1536 1246 977 1394
94 273 433 882 2143 1114 809 690 697 813 998 1774 1641 1673 1759 1877 1916 2109 1736 1863 1562 1540 1140 759 730 482 48 1054 528 75 101 83 237 165 91 135 63 123 93 431 611 885 1218
175 452 1238 1374 2284 1359 794 1221 934 1281 787 811 814 1714 1773 1628 2016 1863 2386 2055 1971 1566 1205 1429 1392 919 156 515 73 683 357 289 436 131 20 60 248 284 431 391 328 364 321
258 476 1417 1956 2246 1763 1494 1200 1244 1307 1422 866 1560 1406 1874 1908 2058 2101 2114 1740 1639 1723 1204 1453 1389 1860 927 327 1075 761 620 591 57 0 31 189 656 579 523 584 510 463 538
205 381 1523 1796 2354 1891 2012 826 1877 1016 805 651 1182 928 1578 1901 1980 2169 2341 2272 1964 1631 2517 2109 1234 1829 1714 484 37 238 1420 1167 968 29 158 277 505 548 743 792 908 785 701
254 377 581 2174 2571 2202 2060 1843 1140 1796 650 595 626 2912 2946 3367 2019 1794 2391 2184 2283 1654 1833 1472 1713 2016 868 1072 56 9 89 0 332 844 698 532 475 499 737 960 595 574 1129
347 361 946 2256 2854 2822 2474 2000 2567 2094 1991 456 903 1535 1007 1631 1852 2204 2077 3028 2185 1925 2008 1985 2158 1788 3104 1554 1116 151 2 77 319 279 231 680 725 575 460 526 612 579 631

GFSSE_con_sbcape_069.txt.gz
CAPE
207 196 946 1215 1489 1507 1629 1725 2092 2794 2165 2229 1960 1580 1710 2232 2280 2093 1968 1074 1307 1689 1690 2207 2049 2135 2343 2523 2605 2660 2661 3247 3140 2439 2169 1824 1720 2085 2592 1819 1435 1102 1889
337 579 1335 1589 1503 1926 1951 2043 2309 2568 2074 2149 1930 1732 2198 1959 1936 2113 1626 1070 1375 1541 1364 1879 1907 2025 2002 2227 2467 2352 2635 3221 3187 2702 2219 1926 1726 1825 2118 1722 1689 1777 1772
487 821 1372 2105 1825 1951 2189 2461 2265 2176 2214 2082 1910 2112 2109 1866 1930 1919 1714 1790 1217 1820 1639 1641 1959 2126 2074 2170 2261 2262 2143 2374 2393 2483 2058 1465 1584 1891 1884 1629 1543 1871 1344
695 790 1092 1851 1995 2005 1973 2414 2433 2249 2356 2269 2349 2083 2033 1948 1926 1836 1802 1932 1504 1575 1661 1638 1725 1918 2149 2188 2280 2133 2111 2058 2202 2180 1085 979 1351 1674 1349 1631 1378 1711 1664
616 716 973 1858 2271 1840 2060 2245 2535 2206 2201 2150 2033 2005 1974 1931 1831 1576 2000 1701 1801 1618 1724 1797 1698 1783 1980 1949 1797 1948 1744 1967 2352 1649 642 811 1220 1621 2102 1840 1692 1115 1641
563 847 2019 1968 2001 1922 2095 2234 2166 2221 2164 2202 2275 1961 2015 1885 1900 1827 1765 1868 1680 1625 1686 1571 1512 1711 1444 1627 1859 1814 1971 1988 1874 1243 1500 1761 1279 1812 1472 1774 1806 1786 1913
430 1329 1787 2410 2408 2035 2032 2224 2174 2223 2133 2067 2310 1964 2158 1806 1849 1754 1585 1790 1598 1763 1798 1577 1506 1537 1445 1304 1491 1569 1929 2101 1137 1248 1393 1334 1495 2138 1558 1873 1761 792 313
500 1147 1381 1942 2088 2221 2012 1975 2049 2026 2057 2062 2026 1844 1871 1627 1631 1600 1550 1870 1615 1563 1606 1528 1483 1485 1462 1224 1008 1313 1508 2116 1356 1311 1342 1380 1900 2126 1710 1714 492 852 1716
526 1055 1239 1464 1601 2010 2009 1929 2066 2090 1984 2110 2013 2177 2181 2091 1836 1645 1466 1586 1432 1303 1399 1539 1534 1516 1533 1303 963 1343 1893 2159 1041 1296 1428 1407 2162 1588 1027 1192 1181 1454 1391
527 935 567 1214 1255 1415 1659 1880 1917 2060 2122 2033 2073 1971 1920 1738 1542 1553 2073 1944 1369 1230 1329 1453 1538 1628 1469 1389 1326 1454 2162 2024 1162 1370 1411 1722 2171 1753 1621 1777 1873 1796 1851
270 560 248 641 962 1138 1398 1706 2144 2039 2072 2288 2120 1726 1807 798 941 1218 1630 1880 1367 1277 1375 1427 1478 1486 1538 1542 1459 1424 1360 1042 985 1374 1572 2184 2274 1792 1786 1693 1698 1419 1146
204 300 70 282 971 985 1433 1459 1407 1423 1398 1160 1326 986 850 785 434 1088 1578 1959 1325 1376 1538 641 1283 1606 1421 1069 956 1339 1553 769 1017 1312 1741 2513 2423 1891 1669 1532 1650 961 1342
5 0 72 431 646 577 786 1285 1209 1027 948 1048 1048 899 1120 512 420 784 1079 1111 842 1325 865 656 304 560 796 903 1048 899 863 636 810 1204 2112 2514 2324 1574 1605 1644 1504 1517 1337
0 73 97 247 588 347 774 1160 1031 815 1021 686 264 867 352 0 23 782 571 725 311 669 743 628 288 407 374 373 690 600 409 460 747 1208 2032 2457 2188 1547 1390 1347 1442 1334 1124
1 47 57 103 119 151 605 694 385 638 800 703 450 206 370 632 275 633 412 119 216 505 498 436 582 432 550 371 797 460 400 455 793 1210 1430 2228 2232 2199 1553 1579 1489 1362 1209
19 10 1 497 134 224 163 363 238 389 681 717 150 0 18 435 1066 283 250 342 249 414 526 436 540 582 416 481 433 448 269 307 444 600 807 1483 2219 2249 1753 1476 1393 1222 1019
17 5 9 267 153 677 588 551 365 104 414 768 741 48 464 537 899 662 463 593 159 516 203 372 860 763 481 312 795 134 550 294 161 285 373 907 1722 2080 1784 1604 1710 1321 897
2 2 0 114 602 478 377 1242 445 244 179 1157 1216 1078 1005 812 546 623 397 315 990 956 809 55 495 364 424 528 160 227 449 457 362 330 323 347 498 659 1493 1646 1724 1416 550
5 0 0 0 267 398 321 594 472 59 896 880 1068 1192 1147 1410 1025 562 283 195 511 633 935 689 92 607 223 314 100 69 526 610 724 632 788 714 287 471 442 1337 1503 1416 807
14 0 0 17 192 421 457 261 735 947 642 1177 1170 944 1653 1347 981 811 731 669 669 211 112 814 60 152 38 186 287 232 476 142 212 332 607 1101 787 653 487 628 1000 1171 1774
28 0 62 174 165 806 866 688 711 554 406 797 1342 1406 1596 1465 77 0 532 1028 606 48 53 691 680 73 80 284 110 154 101 157 63 148 323 656 796 1033 1093 605 801 848 982
27 0 36 346 342 760 703 688 387 425 937 376 346 893 1569 1591 731 779 790 1121 536 519 788 281 48 80 21 22 128 202 56 0 270 165 137 339 6 685 885 785 816 598 433
3 6 0 704 447 640 404 382 778 924 911 510 616 625 1428 1708 1425 1292 732 1121 799 885 850 848 488 59 50 120 157 191 66 3 200 18 0 43 28 317 272 351 371 808 621
0 30 10 727 504 403 521 117 514 557 417 650 754 1323 1567 1409 1754 1410 1259 943 1232 507 831 1086 1237 226 25 140 1041 812 66 146 363 0 0 140 80 516 339 357 355 365 279
6 49 185 792 498 255 618 135 246 319 592 487 798 1176 1548 1664 1692 1721 1469 1523 1232 580 825 937 1270 1307 403 595 694 72 289 43 56 54 120 534 354 172 418 286 504 513 411
53 0 314 734 379 257 283 771 202 290 332 781 555 1015 1373 1852 1953 1847 2131 1492 1256 1390 1171 1226 1434 1080 1382 1415 1400 875 3 1 52 168 494 348 203 172 620 557 376 653 544

GFSSE_con_sbcape_072.txt.gz
CAPE
49 212 1197 1326 1520 1537 1621 1763 2225 2421 2115 1866 1590 2042 2396 1973 2182 1551 1110 1620 1680 1999 2080 2230 2259 2471 2642 2515 2391 2414 2394 2486 3066 2127 1859 1788 1908 1882 1698 1377 1570 1343 1483
45 581 1321 1637 1704 1784 1735 2111 2348 2187 2115 1851 1783 2165 1974 2079 2160 1342 1036 1265 1423 1572 2064 1898 2116 2215 2380 2407 2689 2714 2572 3069 3224 2475 2111 2172 2037 1728 1581 1385 1349 1433 1398
96 722 1455 2145 1971 1818 2135 2152 2044 2114 2141 1863 2271 2123 1925 2111 1958 1794 1484 1772 1693 1830 1775 1878 2052 2048 2221 2343 2361 2099 2361 2377 2839 2151 2141 1406 1498 1638 1452 1785 1412 1167 1599
447 1033 1436 2308 2379 1784 2161 2354 2257 2276 2099 2241 2185 2037 1846 2067 1978 1907 1675 1360 1776 1793 1524 1996 1992 2050 2153 2217 2148 1959 1966 2117 2439 1811 917 1073 891 1876 1292 1444 1537 1818 1521
640 851 1283 1853 2056 1922 1927 2006 2313 2219 2175 2017 2113 2127 1827 1960 1743 1772 1878 1806 1748 1769 1756 1777 1907 1996 2031 1835 1903 1750 1809 2297 1849 998 857 931 1264 1601 1899 1319 1556 1288 1650
639 736 1729 1919 1827 1969 2211 2120 2056 2026 2059 2021 2016 2052 1905 1763 1782 1825 1821 1789 1655 1673 1799 1596 1873 1859 1786 1979 1763 1994 2195 2167 1773 1322 1335 1618 1311 2066 1874 1654 1676 1388 530
642 1180 1518 2500 2432 2140 1907 2040 2165 2151 2103 2127 2092 2101 1912 1845 1825 1770 1836 1695 1862 1797 1569 1620 1536 1502 1920 1864 1978 2120 2169 2095 1259 1231 1127 1239 1233 2153 1832 1599 760 203 569
1249 1506 1723 2172 2206 2308 2194 2207 2188 2131 2087 2057 2018 1913 1780 1737 1709 1586 1765 1661 1710 1738 1700 1613 1471 1539 1645 1630 1887 2138 2745 1863 1317 1138 1180 1287 2033 2246 1697 499 1021 1253 1056
1199 1128 1374 1581 1802 2070 1969 2066 1994 2089 2145 2071 1904 1882 1720 1549 1645 1730 1813 1670 1548 1525 1507 1511 1480 1354 1466 1338 1436 1792 2323 1843 1122 1209 1391 1460 2010 1626 774 670 1489 1100 940
901 1096 1096 1135 1348 1503 1628 2109 2047 2123 2145 2056 2126 1931 1928 1763 1648 1374 1967 1955 1376 1404 1444 1472 1552 1611 1540 1501 1673 2608 2169 1786 1169 1141 1382 1645 1905 1710 1825 1790 1670 1708 1645
791 758 895 989 1059 1149 1321 1731 2125 2117 1974 1956 1871 1719 1646 761 936 900 1443 1645 1363 1426 1445 1496 1562 1635 1559 1673 1931 2082 1495 952 1175 1285 1450 2111 2187 1666 1753 1490 1895 1625 1283
441 282 733 781 861 1119 1552 1505 1301 1527 1544 1217 1256 1033 560 554 571 845 1321 1479 1342 1462 1255 1472 1758 1769 1276 736 764 1310 822 835 1169 1407 1657 2381 2278 1651 1623 1667 1214 954 1493
277 124 380 650 769 957 1291 1016 1016 941 903 688 503 492 517 401 734 886 761 732 744 1084 614 355 349 379 606 774 916 851 795 842 1098 1386 2034 2618 2352 1627 1464 1194 1030 1575 1373
149 0 192 641 523 244 697 952 912 795 634 630 476 501 0 49 305 320 445 418 370 431 546 179 167 234 297 447 558 518 511 729 716 1272 1914 2499 2117 1504 1605 1464 1495 1188 1382
17 0 52 408 343 113 715 704 634 459 626 245 386 333 0 0 67 535 268 125 275 641 430 219 343 198 295 531 501 312 458 569 899 1200 1420 1926 2234 1754 1358 1401 1502 1316 1182
19 31 40 119 174 157 428 443 344 201 290 285 37 124 147 356 116 141 12 0 0 184 226 274 229 442 359 366 225 238 317 481 769 926 1033 1435 2225 2223 1542 1408 1384 1284 1182
63 42 0 58 58 104 147 60 135 186 402 220 0 0 133 519 528 6 67 144 57 58 266 157 292 601 514 114 230 139 132 276 422 570 716 936 1764 1861 1668 1546 1464 1229 1041
69 4 87 188 174 167 304 332 86 34 270 400 47 31 304 746 433 167 56 11 166 58 60 34 434 668 309 225 43 182 112 24 16 160 329 773 1149 1220 1761 1913 2000 1524 868
0 38 15 193 89 39 455 111 67 79 383 604 635 503 446 554 374 208 142 135 32 259 335 2 221 141 131 184 26 37 158 150 19 111 85 169 320 436 500 1396 2040 1876 670
0 0 0 100 60 51 197 90 67 121 328 622 654 715 679 635 411 256 113 184 408 25 368 81 46 44 42 80 91 40 128 62 236 274 409 354 129 300 160 207 774 895 1490
0 0 0 45 18 70 165 239 116 369 439 893 659 709 900 743 334 162 464 740 458 9 107 47 100 6 23 32 9 12 4 30 0 20 181 618 747 638 380 350 448 589 723
0 0 0 90 24 181 210 108 199 99 124 842 719 1024 971 666 0 72 421 757 4 6 262 140 37 5 10 2 30 1 4 0 1 1 43 295 497 712 865 719 612 577 506
0 0 0 100 42 274 180 238 166 168 165 303 163 660 1087 1111 268 661 483 640 277 193 341 64 31 4 1 13 6 53 0 0 0 0 0 45 222 25 679 808 811 677 487
0 0 0 203 123 350 135 198 375 622 408 163 233 332 819 1252 791 729 454 758 387 269 425 528 404 4 0 35 442 172 0 0 96 0 0 0 0 16 242 137 406 528 623
7 0 259 276 203 360 174 66 214 135 119 191 283 609 843 885 1109 961 799 683 800 199 237 594 840 346 0 44 211 0 114 0 0 0 31 1 90 7 15 17 81 102 106
6 0 387 296 222 308 214 5 59 154 80 448 373 807 923 940 1033 1044 951 963 650 390 383 360 697 667 812 636 607 449 0 0 0 15 114 38 65 17 17 73 80 102 94

GFSSE_con_sbcape_075.txt.gz
CAPE
14 141 1148 1416 1600 1725 1940 2129 1949 1834 1641 1536 2072 2102 1886 1984 1511 1366 1665 1664 2252 2216 2298 2387 2476 2533 2347 2340 2234 2297 2440 2303 2234 2160 2160 1980 1802 1612 1720 1656 1155 1072 1373
7 441 1368 1592 1677 1763 1894 2256 2312 1932 1702 1622 2263 2138 2277 2139 1193 1030 1210 1496 1936 1961 1975 2210 2298 2264 2470 2651 2458 2582 2361 2366 2783 2354 2248 1882 1543 1116 1230 1324 1411 861 1053
66 734 1437 2187 1895 1884 2145 2285 2280 2144 1785 2028 2329 2026 2182 1901 1722 1508 1998 1616 1539 1960 1839 2028 2189 2317 2420 2338 2513 2408 2460 2460 2380 2168 2011 1265 1362 1472 1572 1301 1611 740 785
411 894 1486 2402 2239 2023 2194 2166 2222 2130 1966 2248 2165 1949 2046 1961 1811 1411 1617 1974 1782 1757 2066 2075 2044 2044 2254 2217 2117 2034 2153 2276 1986 1872 905 899 1343 1484 1384 1617 1486 1527 479
770 1074 1650 2013 2115 2144 2398 2304 2373 2192 2199 2231 2089 1838 2106 1824 1860 1807 1693 1728 1849 1858 1970 2076 1904 2084 2003 2082 1964 2039 2050 2098 1897 1223 923 914 860 1712 1511 1528 1257 1443 824
843 1043 1903 1996 1960 1957 1898 2107 2190 2083 2058 2109 1927 1761 1910 1749 1784 1752 1703 1633 1709 1586 1703 1880 1875 1929 2008 2006 2070 2105 2305 1926 1713 1187 1377 1649 1293 1734 1397 1417 747 863 1252
576 1067 1633 2289 1968 2059 2249 2198 2073 2025 2036 2054 2043 1886 1751 1757 1864 1749 1668 1806 1613 1462 1611 1679 1707 1836 2006 1912 2070 2079 2001 2109 1102 1051 1126 921 1445 2284 2012 1009 283 1308 862
894 1236 1523 2106 2173 1952 1988 2166 1992 2056 2006 2083 1990 1848 1744 1803 1808 1797 1688 1646 1727 1469 1397 1398 1562 1806 1777 1755 2306 2696 2387 1904 1166 1085 1108 1143 2235 1892 803 720 729 673 1071
1272 1340 1476 1600 1747 2169 2116 2123 2051 2045 2044 2001 1935 1769 1766 1697 1556 1831 1779 1688 1562 1459 1380 1357 1539 1589 1609 1663 1754 2241 2080 1649 997 1118 1269 1340 2435 937 607 1893 1587 1536 1593
1096 1170 1222 1330 1433 1461 1773 1999 1999 2152 2042 1926 1798 1671 1567 1588 1636 1623 2007 1872 1510 1441 1388 1414 1573 1628 1473 1827 1821 2310 1985 1726 1012 1220 1262 1322 1805 1210 1211 1680 1573 1432 746
981 931 917 1064 1199 1210 1445 1495 2035 2060 1947 1827 1516 1787 1624 868 893 874 1597 1544 1559 1483 1394 1475 1350 1333 1476 1820 2300 2137 1694 1029 1050 1208 1286 1962 2070 1822 1815 1808 1798 1556 897
772 795 783 899 1004 1042 1559 1538 1408 1456 1294 1344 1162 748 521 553 586 879 1382 1451 1563 1719 1721 1465 1338 1607 1130 663 1411 1580 778 981 1108 1251 1367 2126 2195 1696 1485 1582 910 1121 1263
539 861 682 760 857 1046 1324 1129 1034 1013 988 894 802 442 364 347 873 858 835 734 834 925 487 643 605 531 626 569 772 596 670 925 1054 1297 1631 2126 2051 1470 1337 1478 966 1582 1321
183 591 531 594 729 724 1003 954 844 829 626 407 274 363 190 215 384 581 500 454 527 262 221 92 188 167 295 430 540 616 541 813 781 1206 1769 2241 2027 1457 1097 1421 1479 1238 1352
34 94 391 493 387 241 834 680 775 652 665 541 357 228 28 99 183 227 351 76 95 386 313 147 190 144 286 355 307 443 487 638 830 1138 1245 1775 2103 1693 1386 1352 1497 1085 1200
0 0 141 338 222 150 601 596 584 413 579 246 265 101 0 4 133 312 159 25 43 192 269 239 218 399 306 87 194 265 395 545 853 1080 1047 1280 1987 1928 1428 1502 1374 1329 1165
7 0 70 199 116 171 438 426 345 272 336 250 87 62 162 248 125 143 37 0 0 113 151 238 254 390 349 93 104 192 207 404 655 876 871 936 1343 1738 1507 1364 1403 1256 1061
50 38 61 264 126 86 217 190 128 170 316 242 24 0 189 496 275 35 102 87 43 33 130 131 264 358 116 185 24 58 16 141 306 433 507 704 961 1356 1433 1737 1737 1521 1042
60 49 20 112 106 50 175 94 40 135 280 257 66 37 215 692 283 52 29 71 159 153 80 24 295 109 62 124 1 40 12 18 7 54 126 342 545 876 512 1147 2266 2305 1371
56 71 65 158 67 132 193 39 9 91 279 376 321 308 276 499 391 67 0 74 187 111 163 2 93 29 10 42 18 10 38 26 29 10 15 16 43 164 82 174 263 1035 1450
4 62 23 87 0 110 64 134 137 224 334 577 495 624 660 543 334 136 120 454 44 0 99 3 23 8 0 0 0 0 0 0 0 38 103 282 390 172 185 86 48 204 377
18 0 80 13 0 80 85 127 138 178 193 363 397 675 716 560 124 192 413 596 189 0 170 208 18 2 0 0 4 0 0 0 0 0 0 104 350 532 654 511 452 423 390
0 0 55 10 0 26 49 77 108 194 167 398 318 722 895 669 0 125 349 525 39 0 271 25 16 0 2 1 0 0 0 0 0 0 0 0 68 132 324 671 723 624 492
0 0 0 20 0 19 35 107 200 231 281 263 275 268 819 1065 320 457 490 569 337 113 134 23 25 0 0 8 140 16 0 0 43 0 0 0 0 6 0 71 420 616 636
0 0 0 3 5 51 22 59 111 217 170 104 176 169 475 854 777 749 575 673 330 137 154 435 407 16 0 8 71 0 1 0 0 0 14 0 0 0 0 0 14 24 70
0 0 0 0 2 38 0 0 103 104 99 127 163 273 406 552 895 863 681 578 634 332 164 320 429 403 189 141 163 155 1 0 0 0 2 4 0 0 0 0 0 0 15